Location: Dehesa de la Cepeda
(40.6574°N, 4.3013°W)
Time: 02:45:12
(UTC+00:00)

Courier 1B - Pass Details

Date: 08 August 2021
Orbit: 963 x 1209 km, 28.3° (Epoch: 17 September)

Event Time Altitude Azimuth Distance (km) Brightness Sun altitude
Rises 19:54:35 0° 259° (W) 4,086 11.7 -6.1°
Reaches altitude 10° 19:57:54 10° 248° (WSW) 3,135 10.8 -6.6°
Maximum altitude 20:04:11 27° 194° (SSW) 2,133 9.2 -7.7°
Drops below altitude 10° 20:10:26 10° 140° (SE) 3,115 9.5 -8.7°
Enters shadow 20:10:56 - 138° (SE) 3,246 9.6 -8.8°
Sets 20:13:44 0° 129° (SE) 4,055 - -9.3°
